Погода в Горелом

Россия / Тамбовская область     52°55′14″N   41°29′52″E
темп.,
°C
ветер,
м/с
пор.,
м/с
влажн.,
%
обл.,
%
осадки,
мм/ч
давл.,
гПа
погр.,
м
6 мая, чт
чт600:00+7ююз310845 0.0 1014176
03:00+7ююз4128539 0.0 1014224
06:00+8ю4118049 0.0 1014244
09:00+14ююз61162100 0.0 1014610
12:00+16ююз71051100 0.0 10131569
15:00+17ююз61150100 0.0 10121843
18:00+15ю51061100 0.0 10121022
21:00+12ю51371100 0.0 1012409
7 мая, пт
пт700:00+10ю41277100 0.0 1011304
03:00+11юз3876100 0.0 1012323
06:00+9ссз3691100 0.0 1013438
09:00+8сз3794100 1.7 1015452
12:00+9ссв128485 1.9 1016401
15:00+14зсз24556 2.0 10161462
18:00+14сз12535 0.0 1016338
21:00+8св11675 0.0 101710
8 мая, сб
сб800:00+6ю37895 0.0 1017122
03:00+5юв3693100 0.0 1017102
06:00+7юв3984100 0.0 1016246
09:00+12ююв5860100 0.0 1014568
12:00+16ю71157100 0.0 10121154
15:00+17ю71366100 0.2 10091553
18:00+13ююз71583100 0.4 10091009
21:00+12ююз61494100 2.4 1008780
9 мая, вс
вс900:00+8зсз51092100 3.1 1010674
03:00+6зсз5893100 4.8 1012603
06:00+6з3889100 0.9 1014860
09:00+8ссз4576100 0.9 10151005
12:00+8ссз3579100 0.8 1015881
15:00+7с3586100 4.1 1018766
18:00+7с488899 0.9 1019800
21:00+5с399461 0.9 1020380
10 мая, пн
пн1000:00+5ссв41392100 0.0 1020548
03:00+5с61490100 0.0 1022691
06:00+6ссв71586100 0.0 1023930
09:00+7ссв71576100 0.0 10241060
12:00+7ссв81674100 0.0 1024871
15:00+8св71677100 0.2 1024679
18:00+7св61587100 0.4 1025494
21:00+7ссв61686100 0.4 1024456